QPF
0.01 0.01 0.02 0.02 0.02 0.01 0.00 0.00 0.00 0.00 0.00 0.00 0.00 0.00 0.00 0.00 0.01 0.01 0.01 0.01 0.01 0.01 0.02 0.02 0.03 0.03 0.03 0.02 0.01 0.01 0.00 0.00 0.00 0.01 0.00 0.00 0.00 0.01 0.01 0.01 0.01 0.01 0.01 0.00 0.01 0.01 0.01 0.01 0.00
0.01 0.02 0.03 0.03 0.01 0.00 0.00 0.00 0.00 0.00 0.00 0.00 0.00 0.00 0.00 0.00 0.01 0.01 0.01 0.01 0.01 0.01 0.01 0.01 0.02 0.03 0.02 0.02 0.02 0.01 0.01 0.00 0.00 0.00 0.00 0.00 0.00 0.00 0.01 0.01 0.01 0.01 0.00 0.00 0.01 0.01 0.02 0.01 0.00
0.01 0.03 0.04 0.03 0.01 0.00 0.00 0.00 0.00 0.00 0.00 0.00 0.00 0.00 0.00 0.00 0.01 0.01 0.01 0.02 0.01 0.01 0.01 0.01 0.01 0.02 0.02 0.02 0.02 0.01 0.01 0.01 0.01 0.01 0.01 0.01 0.00 0.00 0.00 0.01 0.01 0.01 0.01 0.00 0.00 0.01 0.01 0.00 0.00
0.03 0.05 0.06 0.04 0.01 0.00 0.00 0.00 0.00 0.00 0.00 0.00 0.00 0.00 0.00 0.01 0.01 0.01 0.01 0.02 0.01 0.01 0.01 0.01 0.01 0.01 0.02 0.02 0.02 0.02 0.01 0.00 0.00 0.01 0.01 0.00 0.00 0.00 0.00 0.00 0.00 0.00 0.01 0.01 0.00 0.00 0.00 0.00 0.00
0.04 0.06 0.06 0.04 0.01 0.00 0.00 0.00 0.00 0.00 0.00 0.00 0.00 0.00 0.00 0.00 0.01 0.01 0.01 0.01 0.01 0.01 0.02 0.01 0.01 0.01 0.02 0.02 0.03 0.02 0.02 0.01 0.01 0.01 0.01 0.01 0.02 0.01 0.00 0.00 0.00 0.00 0.00 0.00 0.00 0.00 0.00 0.01 0.00
0.06 0.07 0.06 0.06 0.02 0.00 0.00 0.00 0.00 0.00 0.00 0.00 0.00 0.00 0.00 0.01 0.01 0.01 0.01 0.01 0.02 0.02 0.02 0.02 0.02 0.01 0.02 0.03 0.03 0.03 0.02 0.02 0.02 0.01 0.01 0.01 0.01 0.02 0.01 0.00 0.00 0.00 0.00 0.00 0.01 0.01 0.00 0.01 0.01
0.07 0.08 0.07 0.04 0.02 0.01 0.00 0.00 0.00 0.00 0.00 0.00 0.00 0.00 0.00 0.01 0.01 0.01 0.02 0.03 0.03 0.01 0.02 0.03 0.03 0.02 0.02 0.03 0.03 0.03 0.03 0.02 0.02 0.01 0.01 0.01 0.01 0.01 0.01 0.00 0.00 0.00 0.00 0.00 0.00 0.00 0.00 0.00 0.00
0.07 0.09 0.07 0.04 0.02 0.02 0.01 0.00 0.00 0.00 0.00 0.00 0.00 0.00 0.00 0.01 0.01 0.03 0.04 0.04 0.04 0.03 0.02 0.02 0.03 0.03 0.02 0.02 0.03 0.02 0.03 0.03 0.02 0.01 0.01 0.01 0.01 0.01 0.00 0.00 0.00 0.00 0.00 0.00 0.00 0.00 0.00 0.00 0.00
0.08 0.08 0.05 0.04 0.04 0.03 0.02 0.01 0.01 0.01 0.01 0.00 0.00 0.00 0.00 0.01 0.02 0.03 0.04 0.04 0.04 0.03 0.03 0.03 0.04 0.04 0.03 0.02 0.02 0.02 0.02 0.03 0.03 0.02 0.02 0.01 0.02 0.02 0.01 0.00 0.00 0.00 0.00 0.00 0.00 0.00 0.00 0.00 0.00
0.09 0.09 0.08 0.05 0.03 0.02 0.04 0.02 0.01 0.01 0.01 0.01 0.00 0.01 0.01 0.01 0.02 0.03 0.04 0.04 0.04 0.03 0.03 0.04 0.04 0.05 0.05 0.03 0.04 0.03 0.02 0.02 0.03 0.03 0.02 0.01 0.01 0.01 0.01 0.01 0.00 0.00 0.00 0.00 0.00 0.00 0.00 0.00 0.00
0.07 0.07 0.08 0.06 0.01 0.01 0.04 0.04 0.02 0.01 0.01 0.01 0.00 0.01 0.01 0.02 0.03 0.04 0.05 0.04 0.04 0.04 0.03 0.03 0.03 0.04 0.05 0.05 0.04 0.05 0.03 0.02 0.03 0.03 0.03 0.01 0.01 0.01 0.01 0.01 0.01 0.00 0.00 0.00 0.00 0.00 0.00 0.00 0.00
0.04 0.06 0.07 0.05 0.01 0.02 0.04 0.05 0.02 0.01 0.01 0.01 0.01 0.01 0.02 0.02 0.03 0.05 0.05 0.04 0.04 0.04 0.04 0.04 0.03 0.04 0.04 0.05 0.05 0.05 0.04 0.02 0.02 0.03 0.03 0.03 0.02 0.02 0.01 0.02 0.01 0.00 0.00 0.00 0.00 0.00 0.00 0.00 0.00
0.02 0.04 0.05 0.04 0.02 0.03 0.04 0.04 0.02 0.01 0.01 0.01 0.01 0.01 0.02 0.02 0.03 0.03 0.04 0.04 0.03 0.03 0.03 0.04 0.03 0.03 0.03 0.03 0.06 0.06 0.05 0.03 0.03 0.03 0.04 0.03 0.02 0.02 0.02 0.01 0.01 0.01 0.00 0.00 0.01 0.01 0.01 0.01 0.01
0.01 0.02 0.03 0.03 0.03 0.03 0.03 0.02 0.01 0.01 0.01 0.01 0.01 0.01 0.02 0.02 0.03 0.03 0.03 0.03 0.03 0.02 0.02 0.03 0.03 0.03 0.03 0.03 0.04 0.06 0.06 0.04 0.02 0.03 0.05 0.06 0.04 0.02 0.02 0.01 0.01 0.01 0.01 0.01 0.01 0.01 0.01 0.01 0.01
0.01 0.02 0.03 0.03 0.03 0.03 0.03 0.03 0.01 0.01 0.01 0.01 0.01 0.01 0.02 0.02 0.03 0.03 0.03 0.02 0.02 0.02 0.02 0.03 0.03 0.03 0.03 0.03 0.04 0.05 0.08 0.08 0.06 0.03 0.03 0.06 0.07 0.05 0.03 0.02 0.01 0.01 0.01 0.01 0.01 0.01 0.01 0.01 0.01
0.01 0.02 0.02 0.01 0.01 0.01 0.02 0.03 0.02 0.01 0.01 0.01 0.01 0.01 0.01 0.02 0.03 0.02 0.02 0.01 0.02 0.02 0.02 0.02 0.02 0.03 0.04 0.04 0.04 0.04 0.05 0.08 0.09 0.06 0.04 0.04 0.08 0.07 0.05 0.05 0.04 0.03 0.02 0.02 0.02 0.02 0.01 0.00 0.01
0.01 0.01 0.01 0.01 0.01 0.01 0.01 0.02 0.03 0.01 0.01 0.01 0.01 0.01 0.01 0.02 0.02 0.01 0.01 0.01 0.01 0.01 0.01 0.01 0.01 0.02 0.07 0.06 0.04 0.04 0.04 0.06 0.07 0.06 0.05 0.04 0.04 0.06 0.05 0.05 0.05 0.05 0.05 0.05 0.05 0.04 0.02 0.01 0.01
0.01 0.01 0.01 0.01 0.00 0.01 0.01 0.01 0.02 0.01 0.01 0.00 0.01 0.01 0.01 0.01 0.01 0.01 0.01 0.01 0.00 0.00 0.00 0.00 0.00 0.00 0.03 0.07 0.05 0.03 0.03 0.04 0.05 0.06 0.05 0.05 0.06 0.05 0.05 0.04 0.05 0.05 0.06 0.06 0.07 0.07 0.06 0.04 0.03
0.01 0.01 0.00 0.00 0.00 0.00 0.00 0.00 0.01 0.01 0.01 0.00 0.00 0.00 0.00 0.01 0.01 0.01 0.00 0.00 0.00 0.00 0.00 0.00 0.00 0.00 0.00 0.02 0.05 0.05 0.03 0.03 0.04 0.05 0.05 0.04 0.05 0.07 0.07 0.04 0.02 0.03 0.04 0.04 0.05 0.06 0.08 0.06 0.04
0.00 0.00 0.00 0.00 0.00 0.01 0.01 0.01 0.01 0.00 0.00 0.00 0.00 0.00 0.00 0.01 0.01 0.00 0.00 0.00 0.00 0.00 0.00 0.00 0.00 0.00 0.00 0.00 0.02 0.04 0.04 0.04 0.04 0.04 0.05 0.05 0.03 0.04 0.05 0.06 0.03 0.02 0.02 0.02 0.03 0.04 0.05 0.05 0.05
0.00 0.00 0.00 0.00 0.00 0.00 0.01 0.01 0.01 0.00 0.00 0.00 0.00 0.00 0.00 0.00 0.00 0.00 0.00 0.00 0.00 0.00 0.00 0.00 0.00 0.00 0.00 0.00 0.00 0.01 0.02 0.03 0.03 0.03 0.04 0.03 0.04 0.03 0.02 0.03 0.03 0.02 0.01 0.01 0.01 0.02 0.04 0.05 0.04
0.00 0.00 0.00 0.00 0.00 0.01 0.01 0.00 0.00 0.00 0.00 0.00 0.00 0.00 0.00 0.00 0.00 0.00 0.00 0.00 0.00 0.00 0.00 0.00 0.00 0.00 0.00 0.00 0.00 0.00 0.01 0.02 0.02 0.01 0.02 0.01 0.02 0.02 0.02 0.02 0.01 0.01 0.01 0.01 0.01 0.00 0.02 0.05 0.05
0.00 0.00 0.00 0.00 0.00 0.00 0.00 0.00 0.00 0.00 0.00 0.00 0.00 0.00 0.00 0.00 0.00 0.00 0.00 0.00 0.00 0.00 0.00 0.00 0.00 0.00 0.00 0.00 0.00 0.00 0.00 0.00 0.00 0.01 0.01 0.00 0.00 0.01 0.01 0.01 0.01 0.01 0.01 0.01 0.01 0.01 0.00 0.01 0.04
0.00 0.00 0.00 0.00 0.00 0.00 0.00 0.00 0.00 0.00 0.00 0.00 0.00 0.00 0.00 0.00 0.00 0.00 0.00 0.00 0.00 0.00 0.00 0.00 0.00 0.00 0.00 0.00 0.00 0.00 0.00 0.00 0.00 0.00 0.00 0.00 0.00 0.00 0.01 0.00 0.01 0.01 0.01 0.01 0.01 0.01 0.01 0.00 0.01
0.00 0.00 0.00 0.00 0.00 0.00 0.00 0.00 0.00 0.00 0.00 0.00 0.00 0.00 0.00 0.00 0.00 0.00 0.00 0.00 0.00 0.00 0.00 0.00 0.00 0.00 0.00 0.00 0.00 0.00 0.00 0.00 0.00 0.00 0.00 0.00 0.00 0.00 0.01 0.01 0.00 0.00 0.01 0.01 0.01 0.01 0.01 0.01 0.00
0.00 0.00 0.01 0.00 0.00 0.00 0.00 0.00 0.00 0.00 0.00 0.00 0.00 0.00 0.00 0.00 0.00 0.00 0.00 0.00 0.00 0.00 0.00 0.00 0.00 0.00 0.00 0.00 0.00 0.00 0.00 0.00 0.00 0.00 0.00 0.00 0.00 0.00 0.00 0.01 0.01 0.00 0.00 0.00 0.00 0.00 0.00 0.00 0.00
0.00 0.00 0.00 0.00 0.00 0.00 0.00 0.00 0.00 0.00 0.00 0.00 0.00 0.00 0.00 0.00 0.00 0.00 0.00 0.00 0.00 0.00 0.00 0.00 0.00 0.00 0.00 0.00 0.00 0.00 0.00 0.00 0.00 0.00 0.00 0.00 0.00 0.00 0.00 0.00 0.00 0.00 0.00 0.00 0.00 0.00 0.00 0.00 0.00
0.00 0.00 0.00 0.00 0.00 0.00 0.00 0.00 0.00 0.00 0.00 0.00 0.00 0.00 0.00 0.00 0.00 0.00 0.00 0.00 0.00 0.00 0.00 0.00 0.00 0.00 0.00 0.00 0.00 0.00 0.00 0.00 0.00 0.00 0.00 0.00 0.00 0.00 0.00 0.00 0.00 0.00 0.00 0.00 0.00 0.00 0.00 0.00 0.00
0.00 0.00 0.00 0.00 0.00 0.00 0.00 0.00 0.00 0.00 0.00 0.00 0.00 0.00 0.00 0.00 0.00 0.00 0.00 0.00 0.00 0.00 0.00 0.00 0.00 0.00 0.00 0.00 0.00 0.00 0.00 0.00 0.00 0.00 0.00 0.00 0.00 0.00 0.00 0.00 0.00 0.00 0.00 0.00 0.00 0.00 0.00 0.00 0.00
0.00 0.00 0.00 0.00 0.00 0.00 0.00 0.00 0.00 0.00 0.00 0.00 0.00 0.00 0.00 0.00 0.00 0.00 0.00 0.00 0.00 0.00 0.00 0.00 0.00 0.00 0.00 0.00 0.00 0.00 0.00 0.00 0.00 0.00 0.00 0.00 0.00 0.00 0.00 0.00 0.00 0.00 0.00 0.00 0.00 0.00 0.00 0.00 0.00
MSLP
1015.13 1015.76 1016.53 1017.29 1017.91 1018.28 1018.36 1018.18 1017.81 1017.38 1017.04 1016.88 1016.95 1017.24 1017.66 1018.11 1018.45 1018.59 1018.50 1018.20 1017.76 1017.30 1016.93 1016.71 1016.69 1016.84 1017.10 1017.39 1017.64 1017.79 1017.84 1017.80 1017.73 1017.67 1017.67 1017.74 1017.86 1018.00 1018.11 1018.17 1018.15 1018.06 1017.92 1017.77 1017.64 1017.56 1017.53 1017.54 1017.57
1015.39 1016.08 1016.83 1017.51 1018.00 1018.22 1018.14 1017.82 1017.36 1016.91 1016.58 1016.47 1016.62 1016.98 1017.47 1017.96 1018.32 1018.47 1018.37 1018.08 1017.66 1017.23 1016.89 1016.71 1016.73 1016.91 1017.18 1017.48 1017.74 1017.90 1017.96 1017.95 1017.90 1017.87 1017.88 1017.94 1018.04 1018.15 1018.23 1018.24 1018.19 1018.07 1017.92 1017.77 1017.64 1017.57 1017.54 1017.54 1017.57
1015.65 1016.33 1017.01 1017.57 1017.89 1017.94 1017.73 1017.32 1016.83 1016.40 1016.15 1016.15 1016.40 1016.86 1017.41 1017.93 1018.30 1018.44 1018.34 1018.06 1017.66 1017.27 1016.97 1016.84 1016.89 1017.09 1017.37 1017.67 1017.91 1018.07 1018.13 1018.12 1018.09 1018.06 1018.06 1018.10 1018.16 1018.22 1018.25 1018.22 1018.12 1017.99 1017.83 1017.69 1017.58 1017.51 1017.49 1017.49 1017.51
1015.84 1016.48 1017.04 1017.43 1017.59 1017.49 1017.16 1016.71 1016.25 1015.92 1015.80 1015.94 1016.32 1016.88 1017.48 1018.02 1018.39 1018.52 1018.42 1018.15 1017.79 1017.45 1017.21 1017.12 1017.20 1017.41 1017.68 1017.95 1018.16 1018.29 1018.33 1018.30 1018.25 1018.20 1018.18 1018.19 1018.21 1018.22 1018.19 1018.12 1018.00 1017.85 1017.70 1017.57 1017.47 1017.42 1017.41 1017.42 1017.42
1015.95 1016.48 1016.90 1017.12 1017.11 1016.89 1016.50 1016.06 1015.69 1015.50 1015.54 1015.85 1016.37 1017.02 1017.67 1018.22 1018.57 1018.69 1018.59 1018.34 1018.04 1017.76 1017.59 1017.55 1017.66 1017.86 1018.10 1018.31 1018.47 1018.53 1018.52 1018.45 1018.37 1018.30 1018.25 1018.22 1018.20 1018.17 1018.10 1017.99 1017.85 1017.70 1017.56 1017.45 1017.38 1017.34 1017.34 1017.34 1017.33
1015.92 1016.34 1016.60 1016.66 1016.51 1016.19 1015.79 1015.42 1015.17 1015.15 1015.39 1015.87 1016.52 1017.25 1017.94 1018.48 1018.81 1018.92 1018.83 1018.62 1018.38 1018.18 1018.07 1018.09 1018.21 1018.39 1018.57 1018.71 1018.78 1018.76 1018.69 1018.57 1018.46 1018.36 1018.29 1018.24 1018.19 1018.12 1018.02 1017.89 1017.74 1017.60 1017.47 1017.38 1017.32 1017.30 1017.29 1017.27 1017.25
1015.77 1016.05 1016.16 1016.07 1015.81 1015.45 1015.08 1014.81 1014.72 1014.90 1015.32 1015.96 1016.72 1017.51 1018.21 1018.74 1019.05 1019.15 1019.09 1018.93 1018.76 1018.64 1018.61 1018.67 1018.80 1018.94 1019.05 1019.10 1019.08 1018.98 1018.83 1018.68 1018.54 1018.43 1018.35 1018.29 1018.23 1018.14 1018.02 1017.88 1017.72 1017.57 1017.45 1017.36 1017.31 1017.29 1017.26 1017.23 1017.17
1015.51 1015.67 1015.64 1015.43 1015.10 1014.74 1014.43 1014.28 1014.36 1014.72 1015.31 1016.08 1016.93 1017.74 1018.44 1018.95 1019.25 1019.35 1019.32 1019.23 1019.15 1019.11 1019.15 1019.24 1019.36 1019.46 1019.50 1019.46 1019.34 1019.17 1018.98 1018.80 1018.66 1018.56 1018.49 1018.44 1018.37 1018.27 1018.14 1017.97 1017.80 1017.63 1017.50 1017.41 1017.34 1017.30 1017.25 1017.18 1017.09
1015.19 1015.24 1015.10 1014.82 1014.46 1014.12 1013.90 1013.88 1014.12 1014.63 1015.35 1016.21 1017.10 1017.93 1018.60 1019.09 1019.37 1019.50 1019.52 1019.50 1019.50 1019.55 1019.65 1019.77 1019.87 1019.92 1019.89 1019.77 1019.59 1019.37 1019.15 1018.97 1018.85 1018.78 1018.74 1018.70 1018.64 1018.53 1018.38 1018.18 1017.97 1017.78 1017.62 1017.49 1017.40 1017.32 1017.24 1017.14 1017.01
1014.90 1014.85 1014.63 1014.31 1013.96 1013.68 1013.55 1013.66 1014.03 1014.65 1015.45 1016.36 1017.25 1018.06 1018.70 1019.16 1019.44 1019.59 1019.67 1019.73 1019.82 1019.94 1020.09 1020.22 1020.31 1020.31 1020.22 1020.05 1019.82 1019.58 1019.37 1019.22 1019.13 1019.10 1019.10 1019.09 1019.03 1018.91 1018.72 1018.49 1018.23 1017.99 1017.78 1017.61 1017.47 1017.36 1017.24 1017.10 1016.94
1014.69 1014.57 1014.32 1014.00 1013.69 1013.48 1013.45 1013.66 1014.12 1014.81 1015.65 1016.55 1017.41 1018.17 1018.77 1019.20 1019.48 1019.66 1019.80 1019.94 1020.10 1020.28 1020.47 1020.61 1020.67 1020.64 1020.50 1020.30 1020.05 1019.82 1019.64 1019.54 1019.51 1019.53 1019.56 1019.57 1019.51 1019.36 1019.14 1018.86 1018.55 1018.25 1017.98 1017.76 1017.57 1017.41 1017.25 1017.08 1016.88
1014.63 1014.48 1014.23 1013.94 1013.69 1013.56 1013.63 1013.93 1014.45 1015.16 1015.98 1016.83 1017.62 1018.31 1018.85 1019.25 1019.54 1019.75 1019.95 1020.15 1020.37 1020.60 1020.80 1020.94 1020.98 1020.91 1020.75 1020.53 1020.30 1020.10 1019.96 1019.91 1019.94 1020.01 1020.07 1020.09 1020.02 1019.85 1019.58 1019.25 1018.89 1018.54 1018.22 1017.95 1017.71 1017.51 1017.31 1017.10 1016.88
1014.74 1014.59 1014.36 1014.14 1013.98 1013.95 1014.10 1014.46 1015.00 1015.69 1016.46 1017.22 1017.93 1018.52 1019.00 1019.37 1019.65 1019.90 1020.14 1020.39 1020.65 1020.90 1021.10 1021.22 1021.24 1021.15 1020.98 1020.76 1020.55 1020.39 1020.31 1020.32 1020.39 1020.49 1020.57 1020.59 1020.50 1020.30 1020.01 1019.65 1019.25 1018.86 1018.51 1018.19 1017.92 1017.68 1017.44 1017.20 1016.95
1015.02 1014.88 1014.71 1014.57 1014.51 1014.59 1014.82 1015.22 1015.76 1016.41 1017.08 1017.74 1018.33 1018.83 1019.24 1019.57 1019.85 1020.12 1020.39 1020.67 1020.95 1021.19 1021.37 1021.47 1021.46 1021.35 1021.18 1020.98 1020.81 1020.69 1020.66 1020.71 1020.81 1020.92 1021.00 1021.01 1020.91 1020.69 1020.39 1020.01 1019.61 1019.21 1018.84 1018.51 1018.22 1017.94 1017.67 1017.39 1017.10
1015.39 1015.29 1015.20 1015.16 1015.22 1015.39 1015.70 1016.13 1016.65 1017.22 1017.80 1018.34 1018.82 1019.22 1019.56 1019.85 1020.12 1020.39 1020.68 1020.96 1021.23 1021.46 1021.61 1021.67 1021.64 1021.52 1021.36 1021.19 1021.05 1020.98 1020.98 1021.05 1021.16 1021.27 1021.34 1021.32 1021.21 1020.99 1020.70 1020.34 1019.96 1019.59 1019.23 1018.91 1018.60 1018.30 1017.99 1017.67 1017.34
1015.77 1015.72 1015.72 1015.79 1015.96 1016.23 1016.61 1017.05 1017.54 1018.04 1018.51 1018.94 1019.30 1019.62 1019.89 1020.15 1020.41 1020.68 1020.97 1021.24 1021.49 1021.69 1021.81 1021.83 1021.78 1021.66 1021.51 1021.37 1021.28 1021.24 1021.27 1021.35 1021.45 1021.54 1021.58 1021.54 1021.42 1021.21 1020.94 1020.63 1020.30 1019.98 1019.66 1019.36 1019.05 1018.73 1018.39 1018.02 1017.63
1016.09 1016.09 1016.18 1016.36 1016.64 1017.00 1017.43 1017.88 1018.34 1018.75 1019.12 1019.44 1019.70 1019.94 1020.17 1020.40 1020.66 1020.93 1021.21 1021.48 1021.70 1021.86 1021.95 1021.95 1021.88 1021.77 1021.65 1021.55 1021.50 1021.49 1021.53 1021.61 1021.69 1021.74 1021.74 1021.68 1021.55 1021.37 1021.14 1020.89 1020.63 1020.38 1020.11 1019.83 1019.53 1019.20 1018.82 1018.41 1017.97
1016.29 1016.35 1016.51 1016.79 1017.17 1017.60 1018.07 1018.52 1018.92 1019.26 1019.53 1019.75 1019.93 1020.11 1020.31 1020.53 1020.79 1021.08 1021.37 1021.62 1021.83 1021.97 1022.03 1022.02 1021.96 1021.87 1021.79 1021.74 1021.72 1021.74 1021.79 1021.86 1021.90 1021.91 1021.87 1021.79 1021.66 1021.49 1021.31 1021.13 1020.95 1020.75 1020.54 1020.30 1020.00 1019.65 1019.25 1018.80 1018.32
1016.36 1016.47 1016.70 1017.06 1017.51 1017.99 1018.47 1018.90 1019.24 1019.50 1019.68 1019.81 1019.93 1020.07 1020.26 1020.50 1020.78 1021.10 1021.40 1021.68 1021.88 1022.02 1022.07 1022.07 1022.03 1021.97 1021.94 1021.93 1021.96 1022.01 1022.07 1022.12 1022.13 1022.10 1022.02 1021.91 1021.77 1021.62 1021.48 1021.35 1021.23 1021.09 1020.93 1020.71 1020.43 1020.07 1019.65 1019.18 1018.69
1016.34 1016.48 1016.78 1017.20 1017.69 1018.20 1018.66 1019.04 1019.31 1019.48 1019.57 1019.62 1019.69 1019.81 1020.00 1020.27 1020.61 1020.97 1021.32 1021.63 1021.86 1022.01 1022.08 1022.10 1022.09 1022.08 1022.10 1022.15 1022.22 1022.31 1022.38 1022.41 1022.40 1022.33 1022.21 1022.07 1021.92 1021.78 1021.66 1021.57 1021.48 1021.39 1021.25 1021.05 1020.78 1020.43 1020.01 1019.54 1019.06
1016.28 1016.47 1016.81 1017.27 1017.78 1018.28 1018.70 1019.01 1019.19 1019.25 1019.24 1019.22 1019.24 1019.35 1019.57 1019.89 1020.29 1020.73 1021.15 1021.51 1021.79 1021.97 1022.08 1022.13 1022.17 1022.21 1022.27 1022.37 1022.49 1022.61 1022.69 1022.73 1022.69 1022.60 1022.45 1022.28 1022.12 1021.97 1021.86 1021.77 1021.70 1021.62 1021.50 1021.32 1021.06 1020.73 1020.33 1019.90 1019.46
1016.28 1016.51 1016.89 1017.37 1017.88 1018.34 1018.70 1018.91 1018.97 1018.92 1018.81 1018.71 1018.68 1018.79 1019.03 1019.41 1019.89 1020.40 1020.91 1021.34 1021.68 1021.92 1022.07 1022.16 1022.23 1022.32 1022.43 1022.58 1022.73 1022.88 1022.99 1023.03 1022.99 1022.88 1022.72 1022.53 1022.34 1022.18 1022.06 1021.97 1021.90 1021.81 1021.70 1021.52 1021.28 1020.98 1020.63 1020.27 1019.90
1016.39 1016.67 1017.08 1017.58 1018.07 1018.49 1018.76 1018.86 1018.79 1018.61 1018.38 1018.20 1018.12 1018.21 1018.48 1018.91 1019.46 1020.06 1020.64 1021.15 1021.55 1021.84 1022.04 1022.17 1022.27 1022.39 1022.53 1022.71 1022.90 1023.07 1023.20 1023.26 1023.23 1023.13 1022.97 1022.78 1022.58 1022.40 1022.26 1022.15 1022.06 1021.96 1021.84 1021.68 1021.47 1021.22 1020.93 1020.64 1020.37
1016.65 1016.98 1017.43 1017.94 1018.41 1018.76 1018.93 1018.91 1018.72 1018.41 1018.07 1017.79 1017.66 1017.72 1017.99 1018.46 1019.06 1019.73 1020.38 1020.95 1021.40 1021.74 1021.96 1022.12 1022.24 1022.37 1022.53 1022.72 1022.93 1023.13 1023.29 1023.37 1023.38 1023.30 1023.16 1022.98 1022.78 1022.60 1022.45 1022.32 1022.20 1022.09 1021.97 1021.82 1021.64 1021.44 1021.23 1021.03 1020.86
1017.04 1017.42 1017.91 1018.42 1018.86 1019.15 1019.24 1019.11 1018.79 1018.36 1017.91 1017.54 1017.34 1017.36 1017.63 1018.10 1018.73 1019.43 1020.12 1020.73 1021.22 1021.58 1021.82 1021.98 1022.11 1022.23 1022.39 1022.59 1022.81 1023.02 1023.21 1023.33 1023.38 1023.34 1023.24 1023.10 1022.93 1022.75 1022.60 1022.46 1022.33 1022.21 1022.08 1021.94 1021.80 1021.65 1021.52 1021.40 1021.32
1017.50 1017.93 1018.45 1018.96 1019.38 1019.61 1019.62 1019.40 1018.98 1018.45 1017.90 1017.45 1017.19 1017.16 1017.39 1017.85 1018.47 1019.17 1019.87 1020.48 1020.98 1021.34 1021.58 1021.73 1021.84 1021.96 1022.10 1022.29 1022.51 1022.74 1022.95 1023.12 1023.22 1023.25 1023.21 1023.11 1022.98 1022.84 1022.69 1022.55 1022.42 1022.30 1022.17 1022.05 1021.94 1021.84 1021.77 1021.72 1021.71
1017.95 1018.42 1018.96 1019.46 1019.85 1020.04 1019.99 1019.71 1019.22 1018.62 1018.01 1017.50 1017.17 1017.09 1017.27 1017.68 1018.26 1018.93 1019.60 1020.19 1020.67 1021.01 1021.23 1021.37 1021.46 1021.55 1021.68 1021.85 1022.07 1022.31 1022.55 1022.76 1022.92 1023.01 1023.04 1023.01 1022.94 1022.84 1022.72 1022.60 1022.48 1022.36 1022.24 1022.14 1022.05 1021.98 1021.95 1021.96 1021.99
1018.34 1018.82 1019.34 1019.83 1020.18 1020.33 1020.25 1019.93 1019.41 1018.78 1018.14 1017.59 1017.23 1017.10 1017.22 1017.57 1018.08 1018.69 1019.30 1019.84 1020.28 1020.59 1020.79 1020.90 1020.97 1021.04 1021.15 1021.31 1021.53 1021.78 1022.04 1022.30 1022.51 1022.66 1022.76 1022.80 1022.79 1022.74 1022.67 1022.58 1022.47 1022.36 1022.26 1022.17 1022.10 1022.06 1022.05 1022.07 1022.13
1018.63 1019.07 1019.55 1019.98 1020.29 1020.40 1020.30 1019.97 1019.46 1018.84 1018.22 1017.68 1017.30 1017.14 1017.20 1017.48 1017.91 1018.43 1018.97 1019.45 1019.84 1020.11 1020.29 1020.38 1020.44 1020.50 1020.60 1020.75 1020.96 1021.22 1021.49 1021.77 1022.02 1022.23 1022.39 1022.49 1022.54 1022.55 1022.52 1022.46 1022.39 1022.30 1022.21 1022.14 1022.08 1022.04 1022.04 1022.07 1022.12
1018.82 1019.18 1019.57 1019.92 1020.16 1020.23 1020.11 1019.80 1019.34 1018.77 1018.20 1017.70 1017.34 1017.16 1017.18 1017.39 1017.75 1018.18 1018.63 1019.05 1019.39 1019.63 1019.78 1019.88 1019.93 1020.00 1020.09 1020.24 1020.44 1020.68 1020.96 1021.24 1021.51 1021.75 1021.95 1022.09 1022.19 1022.24 1022.26 1022.24 1022.20 1022.14 1022.08 1022.02 1021.97 1021.95 1021.94 1021.96 1021.99
Thickness
5656 5659 5663 5660 5651 5646 5656 5675 5693 5702 5707 5717 5721 5721 5717 5713 5714 5712 5724 5733 5735 5735 5735 5735 5736 5736 5736 5736 5736 5736 5736 5736 5736 5736 5736 5736 5736 5736 5735 5735 5734 5734 5734 5733 5732 5732 5731 5730 5730
5641 5646 5645 5640 5635 5633 5651 5674 5687 5699 5709 5713 5714 5712 5709 5707 5714 5718 5722 5727 5730 5731 5731 5731 5732 5732 5732 5732 5732 5732 5732 5733 5733 5733 5733 5733 5732 5732 5732 5732 5732 5731 5731 5730 5730 5729 5728 5727 5727
5627 5631 5627 5623 5625 5636 5655 5674 5684 5695 5704 5706 5700 5701 5702 5702 5710 5714 5718 5723 5725 5726 5726 5727 5728 5728 5729 5729 5729 5729 5729 5729 5729 5729 5729 5729 5729 5729 5728 5728 5728 5728 5727 5727 5726 5726 5725 5724 5724
5611 5611 5611 5612 5623 5642 5659 5671 5680 5686 5694 5697 5694 5689 5693 5700 5706 5710 5715 5718 5719 5720 5721 5722 5723 5724 5724 5725 5725 5725 5725 5725 5725 5726 5726 5726 5725 5725 5725 5725 5724 5724 5724 5723 5723 5722 5722 5721 5721
5597 5596 5596 5604 5621 5640 5655 5667 5674 5678 5683 5686 5686 5681 5683 5693 5702 5706 5709 5712 5713 5714 5715 5717 5718 5719 5720 5720 5721 5721 5721 5721 5722 5722 5722 5722 5722 5721 5721 5721 5721 5720 5720 5720 5719 5719 5718 5718 5717
5581 5584 5586 5596 5614 5634 5649 5660 5665 5668 5673 5678 5679 5675 5676 5687 5694 5698 5702 5705 5707 5708 5709 5711 5712 5714 5715 5716 5716 5717 5717 5717 5718 5718 5718 5718 5718 5718 5717 5717 5717 5717 5716 5716 5715 5715 5714 5714 5713
5572 5576 5583 5596 5608 5624 5641 5651 5656 5660 5664 5670 5675 5669 5671 5679 5687 5693 5696 5698 5700 5702 5703 5704 5706 5707 5709 5710 5711 5711 5712 5713 5713 5713 5714 5714 5714 5713 5713 5713 5713 5713 5713 5712 5712 5711 5710 5710 5709
5570 5574 5582 5591 5603 5618 5635 5643 5651 5655 5658 5666 5671 5666 5666 5674 5682 5686 5688 5690 5692 5694 5696 5698 5700 5701 5703 5704 5705 5706 5707 5707 5708 5708 5709 5709 5709 5709 5709 5709 5709 5709 5708 5708 5707 5707 5706 5706 5706
5570 5567 5575 5589 5601 5614 5627 5634 5642 5651 5654 5658 5664 5668 5672 5674 5677 5678 5679 5680 5683 5685 5688 5691 5693 5695 5697 5698 5699 5700 5701 5702 5702 5703 5704 5704 5704 5704 5704 5704 5704 5704 5704 5703 5703 5703 5702 5702 5701
5563 5562 5578 5594 5603 5611 5620 5628 5635 5642 5644 5647 5654 5660 5665 5667 5670 5670 5670 5671 5673 5676 5680 5683 5686 5688 5690 5692 5693 5694 5695 5696 5697 5697 5698 5699 5699 5699 5699 5699 5699 5699 5699 5698 5698 5698 5697 5697 5697
5564 5567 5581 5592 5602 5611 5618 5623 5632 5636 5637 5643 5648 5652 5656 5658 5660 5662 5662 5663 5666 5669 5672 5675 5678 5681 5683 5685 5686 5688 5689 5690 5691 5691 5692 5693 5693 5693 5693 5693 5693 5693 5693 5693 5692 5692 5692 5691 5691
5562 5570 5581 5590 5602 5609 5613 5618 5623 5630 5635 5641 5645 5648 5649 5650 5652 5654 5655 5657 5659 5662 5665 5668 5671 5674 5677 5678 5679 5681 5682 5683 5684 5685 5685 5686 5686 5686 5686 5686 5686 5686 5686 5686 5686 5685 5685 5686 5686
5562 5569 5579 5588 5597 5603 5608 5610 5615 5618 5627 5633 5637 5639 5640 5642 5644 5646 5649 5651 5652 5655 5657 5661 5664 5667 5669 5671 5672 5674 5675 5676 5677 5678 5679 5679 5679 5679 5679 5680 5680 5680 5680 5680 5679 5679 5679 5679 5680
5563 5569 5576 5584 5591 5596 5600 5603 5609 5610 5620 5624 5627 5629 5632 5634 5637 5639 5641 5643 5645 5648 5650 5653 5657 5660 5662 5663 5665 5666 5667 5669 5670 5670 5671 5672 5673 5673 5673 5673 5673 5673 5674 5673 5673 5672 5672 5672 5673
5565 5567 5571 5578 5586 5589 5597 5593 5598 5606 5613 5616 5619 5622 5625 5627 5630 5633 5635 5637 5639 5641 5643 5646 5649 5652 5654 5655 5657 5658 5660 5661 5662 5662 5664 5664 5665 5666 5666 5666 5666 5666 5666 5666 5666 5666 5666 5665 5666
5561 5558 5559 5573 5583 5586 5588 5581 5593 5601 5606 5608 5611 5615 5618 5621 5624 5627 5629 5631 5633 5634 5636 5639 5642 5644 5646 5648 5649 5650 5652 5653 5654 5655 5656 5656 5657 5658 5658 5658 5658 5658 5659 5659 5659 5658 5658 5657 5657
5551 5549 5555 5567 5579 5583 5582 5579 5590 5597 5601 5602 5605 5608 5611 5614 5617 5620 5623 5625 5627 5628 5630 5632 5634 5636 5638 5640 5641 5643 5644 5645 5645 5646 5647 5648 5649 5650 5650 5650 5650 5651 5651 5651 5650 5650 5649 5649 5649
5546 5550 5556 5562 5573 5577 5577 5579 5586 5593 5597 5597 5599 5602 5605 5609 5612 5615 5617 5618 5620 5621 5623 5625 5627 5628 5630 5632 5633 5634 5635 5636 5637 5638 5639 5640 5640 5641 5642 5642 5642 5642 5642 5642 5642 5641 5641 5641 5641
5556 5554 5556 5563 5572 5573 5573 5576 5583 5589 5592 5593 5594 5597 5601 5605 5608 5610 5611 5612 5613 5614 5616 5617 5619 5620 5622 5623 5624 5625 5625 5627 5628 5629 5630 5631 5631 5631 5632 5632 5633 5633 5633 5632 5633 5633 5633 5632 5632
5556 5554 5555 5562 5570 5570 5569 5573 5580 5586 5590 5593 5594 5595 5598 5601 5602 5604 5604 5605 5606 5608 5609 5610 5612 5613 5614 5615 5616 5617 5617 5618 5618 5619 5620 5621 5622 5622 5623 5622 5622 5623 5623 5623 5623 5623 5623 5622 5622
5553 5553 5556 5559 5564 5567 5568 5568 5575 5583 5589 5592 5594 5595 5597 5598 5599 5600 5600 5599 5599 5600 5602 5605 5605 5606 5607 5608 5608 5609 5609 5609 5608 5609 5609 5610 5612 5612 5612 5613 5613 5613 5613 5613 5613 5613 5613 5611 5612
5551 5558 5561 5561 5555 5551 5560 5554 5571 5577 5582 5588 5590 5591 5593 5596 5596 5596 5596 5595 5594 5595 5596 5598 5598 5599 5599 5600 5600 5600 5599 5598 5599 5599 5599 5600 5601 5602 5603 5603 5603 5603 5603 5603 5603 5603 5602 5602 5601
5554 5559 5559 5558 5554 5550 5554 5551 5561 5574 5578 5584 5588 5590 5591 5592 5592 5593 5593 5593 5592 5591 5590 5591 5591 5592 5592 5592 5592 5591 5590 5590 5590 5590 5590 5591 5591 5592 5593 5593 5593 5594 5593 5593 5593 5592 5592 5591 5591
5557 5554 5552 5544 5541 5545 5554 5549 5557 5565 5577 5585 5588 5589 5589 5589 5588 5589 5589 5587 5585 5584 5583 5583 5584 5584 5584 5584 5584 5584 5583 5582 5582 5582 5581 5582 5582 5582 5583 5584 5584 5584 5584 5583 5583 5582 5582 5581 5580
5551 5539 5528 5531 5528 5537 5547 5548 5554 5572 5579 5584 5587 5586 5585 5584 5583 5582 5581 5579 5578 5577 5576 5576 5576 5576 5576 5576 5576 5576 5576 5575 5575 5574 5574 5573 5573 5573 5573 5574 5574 5575 5575 5574 5574 5573 5572 5571 5570
5548 5543 5529 5529 5528 5530 5541 5544 5559 5574 5578 5581 5582 5582 5580 5578 5577 5577 5576 5574 5572 5571 5570 5569 5569 5569 5569 5568 5568 5569 5569 5568 5567 5567 5566 5566 5565 5565 5565 5565 5565 5565 5565 5565 5564 5563 5562 5561 5560
5548 5538 5540 5526 5525 5526 5532 5543 5561 5573 5573 5573 5574 5574 5573 5572 5572 5571 5569 5568 5567 5565 5565 5564 5563 5562 5562 5562 5561 5561 5561 5560 5560 5560 5559 5558 5558 5557 5557 5556 5556 5556 5555 5555 5554 5553 5552 5550 5549
5548 5541 5527 5527 5529 5529 5532 5536 5544 5560 5563 5567 5568 5568 5568 5568 5566 5565 5563 5562 5561 5560 5559 5557 5556 5556 5555 5555 5554 5554 5553 5553 5552 5551 5551 5550 5550 5549 5548 5547 5547 5546 5546 5545 5544 5543 5541 5540 5538
5543 5542 5532 5519 5519 5521 5527 5536 5554 5558 5562 5562 5563 5563 5563 5562 5560 5559 5557 5556 5555 5554 5552 5551 5550 5549 5548 5548 5547 5546 5546 5545 5544 5543 5543 5542 5541 5540 5539 5538 5537 5536 5535 5534 5533 5532 5530 5529 5527
5542 5540 5530 5524 5521 5512 5510 5529 5557 5557 5558 5558 5559 5559 5558 5557 5555 5554 5552 5550 5549 5547 5547 5545 5545 5543 5543 5542 5540 5539 5538 5537 5536 5535 5534 5533 5532 5531 5530 5529 5527 5526 5524 5523 5522 5520 5519 5517 5515